Time,TemperatureF,DewpointF,PressureIn,WindDirection,WindDirectionDegrees,WindSpeedMPH,WindSpeedGustMPH,Humidity,HourlyPrecipIn,Conditions,Clouds,dailyrainin,SolarRadiationWatts/m^2,SoftwareType,DateUTC
2013-04-09 00:13:00,46.9,45.0,29.88,ENE,64,13.0,14.0,91,0.00,,,0.00,0,weatherlink.com 1.10,2013-04-09 05:13:00,
2013-04-09 00:28:00,46.2,44.0,29.87,ENE,57,13.0,17.0,91,0.00,,,0.00,0,weatherlink.com 1.10,2013-04-09 05:28:00,
2013-04-09 00:43:00,45.7,44.0,29.87,ENE,73,12.0,14.0,92,0.00,,,0.00,0,weatherlink.com 1.10,2013-04-09 05:43:00,
2013-04-09 00:58:00,45.2,43.0,29.87,ENE,65,14.0,16.0,92,0.00,,,0.00,0,weatherlink.com 1.10,2013-04-09 05:58:00,
2013-04-09 01:13:00,45.0,43.0,29.88,East,87,9.0,15.0,93,0.00,,,0.00,0,weatherlink.com 1.10,2013-04-09 06:13:00,
2013-04-09 01:28:00,44.6,43.0,29.87,ENE,74,9.0,14.0,93,0.00,,,0.00,0,weatherlink.com 1.10,2013-04-09 06:28:00,
2013-04-09 01:43:00,44.4,43.0,29.87,ENE,77,12.0,14.0,93,0.00,,,0.00,0,weatherlink.com 1.10,2013-04-09 06:43:00,
2013-04-09 01:58:00,44.4,43.0,29.87,East,89,15.0,17.0,93,0.00,,,0.00,0,weatherlink.com 1.10,2013-04-09 06:58:00,
2013-04-09 02:13:00,44.4,43.0,29.86,ENE,74,11.0,17.0,93,0.00,,,0.00,0,weatherlink.com 1.10,2013-04-09 07:13:00,
2013-04-09 02:28:00,44.4,43.0,29.86,East,81,11.0,16.0,93,0.00,,,0.00,0,weatherlink.com 1.10,2013-04-09 07:28:00,
2013-04-09 02:43:00,44.2,43.0,29.86,East,90,10.0,16.0,94,0.00,,,0.00,0,weatherlink.com 1.10,2013-04-09 07:43:00,
2013-04-09 02:58:00,44.3,43.0,29.89,SSE,150,9.0,16.0,94,0.00,,,0.00,0,weatherlink.com 1.10,2013-04-09 07:58:00,
2013-04-09 03:13:00,44.2,43.0,29.84,East,93,19.0,24.0,94,0.00,,,0.00,0,weatherlink.com 1.10,2013-04-09 08:13:00,
2013-04-09 03:43:00,44.0,42.0,29.87,East,96,7.0,14.0,94,0.00,,,0.00,0,weatherlink.com 1.10,2013-04-09 08:43:00,
2013-04-09 03:58:00,43.9,42.0,29.86,ENE,71,8.0,18.0,94,0.00,,,0.00,0,weatherlink.com 1.10,2013-04-09 08:58:00,
2013-04-09 04:29:00,43.1,42.0,29.85,East,89,14.0,17.0,94,0.03,,,0.03,0,weatherlink.com 1.10,2013-04-09 09:29:00,
2013-04-09 05:14:00,42.3,41.0,29.86,NNE,13,6.0,19.0,94,0.10,,,0.11,0,weatherlink.com 1.10,2013-04-09 10:14:00,
2013-04-09 05:29:00,41.9,41.0,29.82,ENE,72,22.0,25.0,95,0.61,,,0.64,0,weatherlink.com 1.10,2013-04-09 10:29:00,
2013-04-09 06:29:00,42.2,41.0,29.82,East,83,17.0,22.0,95,0.40,,,1.05,0,weatherlink.com 1.10,2013-04-09 11:29:00,
2013-04-09 06:44:00,42.4,41.0,29.82,East,90,13.0,22.0,96,0.21,,,1.05,0,weatherlink.com 1.10,2013-04-09 11:44:00,
2013-04-09 06:59:00,42.7,41.0,29.82,East,96,18.0,23.0,95,0.19,,,1.06,0,weatherlink.com 1.10,2013-04-09 11:59:00,
2013-04-09 07:14:00,42.7,41.0,29.85,ENE,63,8.0,13.0,95,0.01,,,1.06,0,weatherlink.com 1.10,2013-04-09 12:14:00,
2013-04-09 07:29:00,42.5,41.0,29.85,NNE,31,5.0,13.0,95,0.02,,,1.07,0,weatherlink.com 1.10,2013-04-09 12:29:00,
2013-04-09 07:44:00,42.3,41.0,29.84,East,82,14.0,15.0,95,0.03,,,1.08,5,weatherlink.com 1.10,2013-04-09 12:44:00,
2013-04-09 07:59:00,43.0,42.0,29.85,East,80,10.0,13.0,96,0.02,,,1.08,7,weatherlink.com 1.10,2013-04-09 12:59:00,
2013-04-09 08:14:00,42.8,42.0,29.83,East,101,15.0,18.0,95,0.06,,,1.12,19,weatherlink.com 1.10,2013-04-09 13:14:00,
2013-04-09 08:29:00,42.8,42.0,29.82,East,88,14.0,21.0,95,0.05,,,1.12,46,weatherlink.com 1.10,2013-04-09 13:29:00,
2013-04-09 08:44:00,42.8,41.0,29.84,NE,53,12.0,16.0,94,0.04,,,1.12,7,weatherlink.com 1.10,2013-04-09 13:44:00,
2013-04-09 08:59:00,42.7,41.0,29.82,ENE,71,13.0,18.0,95,0.04,,,1.12,21,weatherlink.com 1.10,2013-04-09 13:59:00,
2013-04-09 09:29:00,42.7,41.0,29.81,East,83,9.0,18.0,95,0.01,,,1.13,47,weatherlink.com 1.10,2013-04-09 14:29:00,
2013-04-09 09:44:00,42.6,41.0,29.81,ENE,71,15.0,17.0,95,0.01,,,1.13,46,weatherlink.com 1.10,2013-04-09 14:44:00,
2013-04-09 10:14:00,43.2,42.0,29.79,East,88,15.0,18.0,95,0.01,,,1.13,90,weatherlink.com 1.10,2013-04-09 15:14:00,
2013-04-09 10:29:00,43.6,42.0,29.79,East,87,11.0,18.0,95,0.00,,,1.13,97,weatherlink.com 1.10,2013-04-09 15:29:00,
2013-04-09 10:44:00,43.8,43.0,29.78,ENE,76,15.0,19.0,95,0.00,,,1.13,148,weatherlink.com 1.10,2013-04-09 15:44:00,
2013-04-09 10:59:00,44.3,43.0,29.77,East,96,14.0,19.0,95,0.00,,,1.13,125,weatherlink.com 1.10,2013-04-09 15:59:00,
2013-04-09 11:14:00,44.7,43.0,29.77,East,92,14.0,19.0,95,0.00,,,1.13,53,weatherlink.com 1.10,2013-04-09 16:14:00,
2013-04-09 11:29:00,44.5,43.0,29.77,East,94,16.0,19.0,95,0.00,,,1.13,51,weatherlink.com 1.10,2013-04-09 16:29:00,
2013-04-09 11:44:00,44.6,43.0,29.76,ESE,106,13.0,18.0,95,0.00,,,1.13,26,weatherlink.com 1.10,2013-04-09 16:44:00,
2013-04-09 11:59:00,44.5,43.0,29.78,East,101,7.0,17.0,95,0.00,,,1.13,0,weatherlink.com 1.10,2013-04-09 16:59:00,
2013-04-09 12:14:00,44.6,43.0,29.81,NE,40,4.0,9.0,95,0.22,,,1.35,0,weatherlink.com 1.10,2013-04-09 17:14:00,
2013-04-09 12:29:00,44.8,44.0,29.76,ESE,107,18.0,22.0,96,0.56,,,1.69,0,weatherlink.com 1.10,2013-04-09 17:29:00,
2013-04-09 12:44:00,45.6,45.0,29.76,East,100,13.0,19.0,96,0.72,,,1.85,49,weatherlink.com 1.10,2013-04-09 17:44:00,
2013-04-09 12:59:00,45.8,45.0,29.76,ESE,116,7.0,15.0,96,0.72,,,1.85,109,weatherlink.com 1.10,2013-04-09 17:59:00,
2013-04-09 13:14:00,46.8,46.0,29.79,NNE,22,7.0,11.0,97,0.45,,,1.85,32,weatherlink.com 1.10,2013-04-09 18:14:00,
2013-04-09 13:29:00,45.6,45.0,29.79,NNE,33,8.0,15.0,96,0.16,,,1.85,46,weatherlink.com 1.10,2013-04-09 18:29:00,
2013-04-09 13:44:00,45.5,45.0,29.79,NE,49,8.0,16.0,96,0.00,,,1.85,49,weatherlink.com 1.10,2013-04-09 18:44:00,
2013-04-09 13:59:00,45.8,45.0,29.79,NNE,33,10.0,16.0,97,0.00,,,1.85,54,weatherlink.com 1.10,2013-04-09 18:59:00,
2013-04-09 14:14:00,44.9,44.0,29.79,NNE,29,9.0,16.0,96,0.00,,,1.85,74,weatherlink.com 1.10,2013-04-09 19:14:00,
2013-04-09 14:29:00,44.8,44.0,29.79,NE,44,13.0,17.0,96,0.00,,,1.85,81,weatherlink.com 1.10,2013-04-09 19:29:00,
2013-04-09 14:44:00,44.5,44.0,29.80,NE,54,9.0,15.0,96,0.00,,,1.85,49,weatherlink.com 1.10,2013-04-09 19:44:00,
2013-04-09 14:59:00,43.9,43.0,29.79,NE,45,14.0,17.0,95,0.00,,,1.85,53,weatherlink.com 1.10,2013-04-09 19:59:00,
2013-04-09 15:14:00,43.7,42.0,29.80,NE,49,12.0,18.0,95,0.00,,,1.85,51,weatherlink.com 1.10,2013-04-09 20:14:00,
2013-04-09 15:29:00,43.4,42.0,29.80,NE,52,14.0,19.0,95,0.00,,,1.85,62,weatherlink.com 1.10,2013-04-09 20:29:00,
2013-04-09 15:44:00,43.1,42.0,29.81,NE,45,13.0,20.0,94,0.00,,,1.85,62,weatherlink.com 1.10,2013-04-09 20:44:00,
2013-04-09 15:59:00,42.7,41.0,29.81,NNE,28,17.0,20.0,94,0.00,,,1.85,83,weatherlink.com 1.10,2013-04-09 20:59:00,
2013-04-09 16:14:00,42.3,41.0,29.82,NE,53,13.0,22.0,94,0.00,,,1.85,56,weatherlink.com 1.10,2013-04-09 21:14:00,
2013-04-09 16:29:00,41.9,40.0,29.82,NE,46,16.0,22.0,94,0.00,,,1.85,33,weatherlink.com 1.10,2013-04-09 21:29:00,
2013-04-09 16:59:00,41.3,40.0,29.83,NE,47,17.0,24.0,94,0.00,,,1.85,60,weatherlink.com 1.10,2013-04-09 21:59:00,
2013-04-09 17:14:00,41.3,40.0,29.83,NE,50,16.0,23.0,94,0.00,,,1.85,39,weatherlink.com 1.10,2013-04-09 22:14:00,
2013-04-09 17:29:00,41.2,40.0,29.84,NE,44,15.0,23.0,94,0.00,,,1.85,32,weatherlink.com 1.10,2013-04-09 22:29:00,
2013-04-09 17:44:00,41.2,40.0,29.85,NE,52,14.0,23.0,94,0.00,,,1.85,21,weatherlink.com 1.10,2013-04-09 22:44:00,
2013-04-09 17:59:00,41.1,40.0,29.86,ENE,58,21.0,24.0,94,0.00,,,1.85,44,weatherlink.com 1.10,2013-04-09 22:59:00,
2013-04-09 18:14:00,41.1,39.0,29.86,ENE,62,17.0,21.0,93,0.00,,,1.85,23,weatherlink.com 1.10,2013-04-09 23:14:00,
2013-04-09 18:29:00,41.1,39.0,29.86,ENE,67,17.0,26.0,93,0.00,,,1.85,16,weatherlink.com 1.10,2013-04-09 23:29:00,
2013-04-09 18:44:00,41.1,39.0,29.86,NE,43,15.0,22.0,93,0.00,,,1.85,12,weatherlink.com 1.10,2013-04-09 23:44:00,
2013-04-09 19:00:00,41.0,39.0,29.87,ENE,64,18.0,22.0,93,0.00,,,1.85,11,weatherlink.com 1.10,2013-04-10 00:00:00,
2013-04-09 19:15:00,40.9,39.0,29.88,ENE,63,16.0,21.0,93,0.00,,,1.85,0,weatherlink.com 1.10,2013-04-10 00:15:00,
2013-04-09 19:30:00,40.9,39.0,29.88,ENE,59,12.0,21.0,94,0.00,,,1.85,0,weatherlink.com 1.10,2013-04-10 00:30:00,
2013-04-09 19:45:00,40.7,39.0,29.88,ENE,58,12.0,22.0,94,0.00,,,1.85,0,weatherlink.com 1.10,2013-04-10 00:45:00,
2013-04-09 20:00:00,40.6,39.0,29.88,ENE,58,17.0,25.0,94,0.00,,,1.85,0,weatherlink.com 1.10,2013-04-10 01:00:00,
2013-04-09 20:15:00,40.6,39.0,29.88,ENE,67,22.0,27.0,94,0.00,,,1.85,0,weatherlink.com 1.10,2013-04-10 01:15:00,
2013-04-09 20:30:00,40.6,39.0,29.88,ENE,71,21.0,30.0,94,0.00,,,1.85,0,weatherlink.com 1.10,2013-04-10 01:30:00,
2013-04-09 20:45:00,40.4,39.0,29.88,ENE,64,19.0,32.0,93,0.00,,,1.85,0,weatherlink.com 1.10,2013-04-10 01:45:00,
2013-04-09 21:00:00,40.0,38.0,29.89,ENE,76,27.0,33.0,93,0.00,,,1.85,0,weatherlink.com 1.10,2013-04-10 02:00:00,
2013-04-09 21:15:00,39.6,38.0,29.89,ENE,74,22.0,26.0,93,0.00,,,1.85,0,weatherlink.com 1.10,2013-04-10 02:15:00,
2013-04-09 21:30:00,39.5,38.0,29.89,ENE,64,24.0,27.0,93,0.00,,,1.85,0,weatherlink.com 1.10,2013-04-10 02:30:00,
2013-04-09 21:45:00,39.3,38.0,29.90,ENE,66,23.0,28.0,93,0.00,,,1.85,0,weatherlink.com 1.10,2013-04-10 02:45:00,
2013-04-09 22:00:00,39.3,37.0,29.89,ENE,70,16.0,31.0,92,0.00,,,1.85,0,weatherlink.com 1.10,2013-04-10 03:00:00,
2013-04-09 22:15:00,39.2,37.0,29.89,ENE,66,16.0,22.0,93,0.00,,,1.85,0,weatherlink.com 1.10,2013-04-10 03:15:00,
2013-04-09 22:30:00,39.1,37.0,29.90,ENE,75,12.0,25.0,93,0.00,,,1.85,0,weatherlink.com 1.10,2013-04-10 03:30:00,
2013-04-09 22:45:00,38.9,37.0,29.90,ENE,76,16.0,24.0,93,0.00,,,1.85,0,weatherlink.com 1.10,2013-04-10 03:45:00,
2013-04-09 23:00:00,38.8,37.0,29.90,East,80,13.0,24.0,93,0.00,,,1.85,0,weatherlink.com 1.10,2013-04-10 04:00:00,
2013-04-09 23:15:00,38.8,37.0,29.89,ENE,78,12.0,23.0,93,0.00,,,1.85,0,weatherlink.com 1.10,2013-04-10 04:15:00,
2013-04-09 23:30:00,38.7,37.0,29.89,East,88,15.0,24.0,93,0.00,,,1.85,0,weatherlink.com 1.10,2013-04-10 04:30:00,
2013-04-09 23:45:00,38.5,37.0,29.88,East,90,16.0,28.0,93,0.00,,,1.85,0,weatherlink.com 1.10,2013-04-10 04:45:00,